Wind_Speed
47 46 46 47 46 45 46 47 47 47 46 46 46 46 46 45 43 43 44 44 45 44 43 43 42 40 39 39 39 38 37 37 37 37 36 35 35 36
48 48 48 48 48 47 47 48 48 47 47 46 46 46 46 46 44 44 43 44 45 45 45 45 44 43 42 42 41 40 40 39 39 38 37 37 37 37
50 49 49 50 49 49 48 49 49 49 49 47 47 46 46 46 45 45 45 44 44 46 46 46 46 46 45 44 44 43 42 41 40 41 39 39 39 39
51 50 50 50 50 51 50 50 50 50 49 48 48 48 48 47 46 46 46 46 46 46 47 47 47 47 47 46 46 46 45 44 43 43 43 43 42 42
52 52 52 51 51 51 51 51 51 51 50 50 50 49 49 49 49 49 49 48 48 48 47 47 47 48 47 47 47 48 48 47 46 45 45 45 45 45
53 53 53 51 51 51 52 52 52 52 52 52 51 51 51 50 51 50 50 50 49 49 48 48 49 48 49 49 49 49 49 48 47 47 47 47 47 47
54 54 53 52 50 51 51 52 53 52 52 52 52 52 52 52 52 52 52 51 51 50 50 50 50 51 51 50 50 50 50 50 49 49 48 48 48 49
54 53 53 52 52 51 52 52 53 53 52 53 53 53 54 54 54 54 53 53 52 51 51 50 50 51 52 52 51 50 50 51 50 50 50 49 49 49
53 54 53 52 52 52 53 54 54 53 54 55 54 54 54 55 55 55 54 54 53 52 52 52 52 52 51 52 52 51 51 52 52 52 52 51 51 51
53 53 53 53 52 53 53 53 54 54 55 55 54 54 55 55 56 55 55 55 55 55 55 54 54 54 54 53 53 53 53 53 53 53 53 53 52 52
52 51 52 52 52 52 52 52 53 53 54 55 54 54 54 55 56 56 55 55 55 55 55 56 55 55 54 54 54 54 54 55 55 55 55 55 53 53
51 50 51 52 52 52 52 52 52 52 52 53 53 53 54 55 55 55 55 55 55 54 55 56 56 56 54 54 55 55 55 55 56 56 56 56 55 55
50 49 49 50 51 52 53 52 51 51 52 52 53 53 54 54 54 54 55 55 55 54 55 55 55 55 55 55 55 56 56 56 56 57 57 57 57 56
48 48 48 48 49 49 51 51 51 50 51 51 52 52 53 53 53 53 54 55 55 55 55 55 55 56 56 55 54 55 55 57 57 56 56 57 57 57
45 46 47 47 48 47 48 49 49 49 50 51 51 51 52 53 53 54 54 54 54 55 55 55 55 54 55 55 55 55 55 55 56 56 56 56 56 57
44 44 45 45 46 46 46 47 48 48 48 48 48 50 52 53 53 53 54 54 54 53 54 53 53 53 53 54 54 54 54 55 55 56 55 55 56 56
42 43 43 43 43 44 45 47 47 47 47 46 46 47 49 50 51 52 53 53 53 53 52 52 52 52 52 53 54 54 55 55 56 56 56 55 55 56
41 41 41 41 42 42 43 44 45 45 46 45 45 46 47 48 49 50 51 52 52 52 51 52 52 52 52 52 53 53 54 54 55 55 56 56 55 56
39 40 40 40 41 42 43 43 44 45 46 46 45 45 46 47 48 49 50 50 50 50 50 51 52 52 51 51 51 53 54 54 54 55 55 55 55 54
38 38 38 39 41 42 42 43 44 44 44 44 44 44 45 46 46 47 48 48 48 48 49 49 50 50 50 50 50 52 53 53 53 53 53 53 53 52
37 37 38 38 38 39 40 41 41 41 42 43 43 43 43 44 44 45 45 46 47 47 48 48 48 49 50 50 50 50 51 52 51 51 51 51 51 51
35 36 37 37 37 36 37 39 40 40 40 41 41 41 41 42 43 43 44 45 45 45 46 47 47 48 48 49 49 49 49 49 49 49 49 50 49 49
34 34 35 36 36 36 36 37 38 38 39 39 40 40 40 41 41 42 43 44 44 44 45 46 46 47 47 47 48 48 48 48 48 48 48 48 48 48
Wind_Direction
247 248 247 246 244 243 244 245 246 247 247 247 248 249 249 250 251 251 251 251 251 251 251 251 252 253 255 257 258 261 263 265 267 270 270 271 272 274
248 249 248 247 245 245 244 244 245 246 247 248 248 249 250 250 250 250 250 250 251 251 252 252 252 253 255 257 259 261 263 266 267 268 270 271 273 274
248 248 249 247 244 245 244 244 244 246 247 248 248 249 250 250 251 251 250 249 250 251 252 253 253 255 256 257 258 260 262 264 266 267 269 271 272 273
248 248 247 245 244 244 245 244 245 246 247 247 247 248 249 249 250 250 250 250 251 252 252 252 254 255 257 258 259 260 262 263 265 266 268 270 271 272
248 247 246 245 245 245 245 246 246 246 247 248 248 248 248 248 249 250 251 251 251 252 253 253 254 255 257 258 259 260 261 264 265 266 267 269 271 272
248 246 245 244 246 246 246 247 248 248 249 249 249 248 248 249 249 250 251 251 252 254 254 255 255 256 257 258 260 260 262 263 265 266 267 269 270 271
248 246 244 244 246 246 247 248 248 249 249 250 250 249 249 249 250 250 252 252 253 254 255 256 256 257 258 259 260 261 263 264 265 265 267 268 269 270
247 245 244 245 247 247 248 248 249 250 251 251 251 251 251 250 251 251 252 252 253 253 254 255 256 258 259 259 261 262 263 264 265 266 266 268 269 270
246 245 244 246 249 248 248 248 248 249 251 251 251 251 252 252 251 252 252 253 253 254 254 255 256 258 259 260 261 262 263 264 265 266 267 268 269 270
245 244 245 247 248 248 249 248 249 249 250 251 251 251 251 251 251 252 253 253 254 256 257 258 259 260 261 261 262 263 263 263 264 265 266 267 268 270
244 244 245 246 249 249 248 249 250 250 250 250 251 252 251 251 251 252 253 253 254 255 257 258 259 260 261 261 262 264 264 264 265 266 266 266 267 269
244 245 246 247 248 248 249 249 249 250 251 251 251 252 252 252 252 252 253 253 254 255 257 258 260 260 260 261 263 264 265 265 266 267 267 267 268 270
245 246 246 246 246 248 249 249 250 251 251 251 251 252 252 252 252 253 253 253 255 256 257 257 258 260 261 262 263 264 265 266 266 267 267 268 269 270
245 245 246 247 247 249 249 249 250 251 251 251 251 251 252 252 253 253 253 254 255 257 256 257 258 259 261 262 263 264 266 266 266 267 268 268 269 270
246 246 246 248 249 250 251 251 251 251 251 251 251 251 251 253 253 253 253 254 256 256 257 257 259 260 261 263 264 265 266 266 267 267 268 268 270 271
246 246 246 248 249 249 250 251 251 251 252 253 252 252 251 252 253 253 253 254 255 256 257 258 260 261 263 264 264 264 265 266 267 269 269 270 271 272
245 245 247 248 249 249 251 253 252 251 251 253 254 253 252 252 253 253 253 253 254 256 257 259 261 263 264 265 265 265 265 266 267 269 270 270 271 273
245 245 248 250 250 250 251 253 253 253 253 254 256 255 254 253 253 254 254 254 255 257 258 260 261 262 264 264 265 265 265 267 268 270 271 272 273 274
247 247 249 250 249 250 252 253 254 255 256 256 256 256 255 255 255 255 256 257 257 258 260 261 261 261 262 263 264 265 266 267 269 270 272 273 274 275
248 248 249 250 250 251 252 253 255 255 255 256 256 257 256 256 256 256 257 257 257 258 259 260 260 261 262 263 264 265 267 269 270 271 272 272 273 274
249 250 250 249 250 251 253 253 254 255 254 254 254 255 255 255 255 255 256 257 257 258 259 260 261 262 262 264 265 266 268 269 270 270 271 271 272 273
248 249 249 249 250 251 253 253 254 254 254 254 254 255 255 255 255 256 257 258 259 259 259 260 261 262 263 264 265 266 267 268 269 270 270 271 273 273
247 248 249 250 252 254 254 254 254 253 252 253 254 254 255 255 256 257 259 259 259 259 259 260 261 262 264 265 266 267 267 267 268 269 271 272 272 273
Height
5667 5670 5673 5676 5680 5683 5687 5690 5694 5698 5703 5706 5709 5711 5714 5716 5719 5721 5724 5726 5729 5731 5733 5735 5737 5739 5740 5741 5742 5743 5744 5744 5744 5744 5743 5743 5743 5742
5654 5657 5660 5664 5668 5671 5674 5678 5681 5685 5689 5694 5696 5699 5701 5704 5706 5709 5711 5714 5717 5719 5721 5723 5726 5727 5729 5730 5732 5733 5734 5734 5734 5734 5734 5734 5734 5733
5641 5644 5647 5650 5654 5658 5662 5665 5668 5672 5676 5681 5684 5687 5689 5692 5695 5697 5699 5702 5704 5707 5709 5712 5714 5715 5717 5719 5720 5721 5722 5723 5724 5724 5724 5724 5723 5723
5627 5631 5634 5637 5641 5645 5649 5652 5656 5659 5663 5667 5671 5674 5677 5680 5682 5685 5687 5689 5692 5695 5697 5699 5701 5703 5705 5707 5708 5710 5711 5712 5712 5713 5713 5714 5713 5712
5614 5617 5621 5624 5628 5632 5635 5639 5643 5646 5650 5654 5658 5661 5664 5667 5670 5672 5675 5677 5680 5682 5685 5687 5689 5691 5693 5694 5696 5697 5699 5700 5701 5702 5701 5702 5701 5701
5599 5603 5607 5612 5615 5618 5622 5626 5629 5632 5636 5640 5644 5647 5651 5654 5656 5659 5662 5664 5667 5669 5672 5674 5676 5678 5680 5682 5684 5685 5686 5687 5688 5689 5689 5689 5689 5689
5585 5589 5594 5598 5601 5605 5608 5612 5615 5618 5621 5625 5629 5633 5636 5640 5643 5646 5648 5651 5654 5656 5659 5661 5664 5665 5667 5669 5670 5672 5673 5674 5675 5676 5676 5677 5676 5676
5571 5576 5580 5584 5588 5591 5594 5598 5601 5604 5608 5611 5615 5619 5622 5625 5628 5630 5634 5637 5641 5644 5645 5647 5649 5652 5653 5655 5657 5658 5660 5661 5661 5662 5663 5663 5663 5663
5557 5561 5566 5570 5573 5576 5580 5583 5587 5590 5594 5597 5600 5604 5607 5610 5613 5617 5619 5622 5626 5629 5631 5633 5636 5638 5640 5641 5643 5644 5646 5647 5648 5648 5649 5649 5649 5649
5543 5547 5552 5556 5559 5562 5565 5568 5571 5575 5579 5583 5587 5590 5592 5594 5598 5601 5604 5608 5612 5614 5616 5620 5622 5624 5626 5627 5629 5630 5631 5632 5633 5634 5634 5635 5635 5635
5529 5533 5538 5542 5545 5548 5550 5554 5558 5561 5563 5567 5571 5574 5576 5579 5583 5586 5590 5593 5597 5600 5602 5605 5608 5609 5611 5613 5614 5615 5616 5617 5618 5619 5619 5620 5620 5620
5516 5520 5524 5527 5531 5533 5535 5539 5543 5547 5549 5552 5555 5558 5561 5564 5568 5571 5575 5579 5582 5585 5588 5590 5592 5594 5597 5599 5599 5600 5600 5601 5603 5603 5604 5604 5604 5604
5502 5506 5510 5514 5517 5519 5522 5525 5529 5532 5534 5537 5540 5543 5546 5550 5553 5557 5560 5564 5568 5571 5573 5575 5577 5579 5581 5584 5585 5585 5585 5586 5587 5588 5588 5588 5589 5589
5489 5493 5497 5500 5503 5506 5508 5512 5515 5517 5519 5522 5525 5529 5532 5536 5539 5543 5546 5549 5553 5556 5558 5560 5562 5565 5566 5568 5570 5571 5571 5571 5571 5572 5573 5573 5573 5573
5477 5480 5484 5487 5490 5493 5496 5498 5500 5502 5505 5508 5511 5515 5519 5522 5525 5528 5531 5534 5538 5541 5543 5545 5548 5549 5551 5553 5555 5556 5556 5556 5556 5556 5557 5557 5557 5557
5464 5468 5471 5474 5477 5480 5483 5484 5486 5489 5492 5495 5498 5501 5504 5507 5510 5514 5517 5520 5523 5526 5528 5530 5532 5534 5536 5537 5539 5540 5541 5541 5541 5541 5541 5541 5541 5541
5452 5455 5459 5462 5465 5467 5470 5472 5474 5476 5479 5482 5485 5488 5490 5493 5497 5500 5503 5506 5509 5512 5515 5516 5517 5519 5520 5521 5523 5524 5525 5525 5525 5525 5525 5526 5526 5525
5442 5445 5448 5450 5453 5456 5458 5460 5462 5464 5467 5470 5472 5475 5477 5480 5483 5487 5489 5492 5495 5498 5500 5501 5502 5504 5505 5507 5508 5509 5509 5510 5510 5509 5509 5509 5510 5510
5432 5435 5437 5439 5442 5444 5447 5449 5451 5453 5455 5457 5459 5462 5464 5467 5470 5473 5476 5478 5481 5483 5485 5486 5487 5489 5490 5493 5495 5493 5494 5494 5494 5494 5493 5493 5494 5494
5421 5424 5426 5428 5430 5433 5435 5437 5439 5441 5443 5445 5447 5449 5451 5454 5456 5459 5462 5464 5467 5469 5471 5472 5473 5475 5477 5479 5480 5480 5478 5478 5478 5479 5478 5478 5478 5478
5412 5414 5416 5418 5420 5422 5424 5426 5427 5429 5431 5433 5435 5437 5439 5441 5444 5446 5449 5451 5453 5455 5457 5459 5461 5461 5462 5463 5464 5465 5465 5463 5463 5463 5463 5463 5463 5463
5402 5404 5406 5408 5410 5412 5413 5414 5416 5418 5419 5421 5423 5425 5427 5429 5432 5434 5436 5438 5440 5442 5444 5446 5446 5447 5448 5449 5450 5451 5451 5450 5450 5449 5448 5448 5447 5448
5393 5395 5397 5399 5400 5402 5403 5404 5405 5406 5408 5410 5412 5414 5416 5418 5420 5422 5424 5425 5427 5429 5430 5432 5433 5434 5434 5435 5436 5437 5437 5437 5436 5437 5436 5435 5434 5434